GFSNIL_con_lsi_000.txt.gz
Lid_Strength_Index
12 11 13 14 15 16 16 16 16 16 16 16 16 17 17 17 17 17 17 18 18 17
12 12 13 14 15 16 16 15 16 16 16 17 17 17 17 17 17 17 17 18 18 18
14 14 15 15 16 16 16 16 16 17 17 17 17 17 18 18 17 18 18 17 18 18
15 15 16 16 17 17 16 16 16 17 17 17 17 18 18 18 17 18 17 17 18 18
16 16 17 17 17 16 17 16 17 17 17 17 17 18 18 18 18 17 18 18 18 17
16 17 17 17 17 16 16 17 17 17 18 18 18 18 18 17 17 17 17 18 18 17
17 17 17 17 16 16 17 17 18 18 18 18 18 17 17 16 17 18 17 17 17 16
17 17 16 16 17 17 17 18 18 18 18 18 17 16 15 16 17 18 18 17 16 16
16 16 16 17 18 18 18 18 18 18 18 18 16 14 13 14 16 17 17 17 16 16
16 16 17 18 18 18 19 18 19 18 18 19 19 14 13 12 16 16 17 16 16 15
17 17 18 18 18 19 19 19 19 19 19 20 18 13 13 12 15 16 16 16 16 16
17 18 18 19 19 19 19 19 20 19 20 20 19 13 12 13 16 16 16 15 15 15
18 19 19 19 19 19 20 19 19 19 19 17 18 14 13 13 15 16 16 15 14 11
19 19 19 19 20 20 20 20 20 19 19 18 17 17 13 12 14 15 14 15 13 12

GFSNIL_con_lsi_003.txt.gz
Lid_Strength_Index
12 11 12 11 11 12 12 13 13 14 14 14 13 13 13 13 13 14 14 14 14 14
13 12 12 12 12 12 13 13 14 14 14 14 13 14 14 14 14 14 14 14 14 15
13 11 12 12 13 13 13 14 14 14 14 14 14 14 14 14 14 15 14 14 15 14
12 12 13 14 14 14 14 14 14 14 14 14 14 15 15 15 15 15 15 14 14 15
13 14 14 15 15 14 15 14 14 14 14 14 15 15 16 15 15 15 15 15 15 15
14 14 15 15 15 14 15 15 14 14 15 16 16 16 16 15 14 14 15 15 15 15
15 15 15 15 15 15 15 15 15 15 16 16 16 16 15 14 14 15 15 15 15 15
15 15 15 15 15 15 14 15 16 16 16 16 16 15 13 13 14 15 15 14 14 14
15 15 15 16 15 15 16 16 16 17 16 16 16 14 13 13 14 14 14 14 14 13
15 15 16 16 16 16 17 17 17 17 17 17 16 14 13 13 13 14 14 13 13 13
15 16 16 16 17 17 17 17 17 17 17 17 16 14 13 12 13 13 13 13 13 13
16 17 17 17 17 17 17 17 17 17 17 17 16 14 13 13 13 13 13 13 13 13
17 17 17 17 17 17 17 17 17 17 17 16 16 14 13 13 13 14 14 13 13 12
17 18 18 17 17 18 18 18 18 17 16 16 16 15 13 12 13 13 13 13 13 12

GFSNIL_con_lsi_006.txt.gz
Lid_Strength_Index
11 10 10 9 9 10 9 9 10 10 10 11 11 11 11 10 11 11 11 12 12 12
11 9 9 9 9 8 9 10 10 10 11 11 11 11 11 11 11 11 11 11 12 12
9 9 9 9 9 10 10 11 11 11 11 11 11 11 11 11 11 12 11 12 13 13
11 10 10 10 10 10 11 11 11 11 11 12 12 12 12 12 12 13 13 12 13 13
12 10 10 10 11 11 12 12 12 12 12 12 12 12 12 13 13 13 13 13 13 13
11 10 11 11 12 12 12 12 12 12 12 13 13 13 13 13 13 13 13 13 13 14
10 11 11 12 12 12 12 12 12 12 13 13 13 14 14 13 12 12 12 13 13 13
12 12 12 13 13 12 12 12 12 13 13 14 14 14 13 12 12 12 13 13 13 13
13 13 13 13 13 12 13 13 13 14 14 14 14 14 12 12 13 13 13 13 13 12
13 13 13 13 13 13 13 14 14 14 14 14 14 14 13 13 13 13 13 13 12 12
13 13 13 13 13 14 14 14 14 14 14 14 14 14 14 13 12 13 12 12 12 12
13 14 14 14 14 15 14 14 14 14 14 15 14 15 13 13 13 13 12 12 12 12
14 14 14 15 15 15 14 14 14 15 15 15 15 14 13 13 13 13 13 12 12 11
14 15 15 15 15 14 14 15 15 15 15 14 14 14 13 12 13 13 13 13 12 12

GFSNIL_con_lsi_009.txt.gz
Lid_Strength_Index
5 6 9 11 11 11 10 10 9 9 9 9 9 10 10 10 10 11 10 11 11 11
6 8 10 11 10 9 9 10 9 9 10 10 10 10 10 10 11 11 11 11 10 11
9 10 10 10 9 9 9 10 10 10 10 10 10 10 11 11 11 11 10 11 12 12
10 10 10 10 9 10 10 10 10 10 11 11 11 11 11 11 11 11 11 12 12 13
11 11 10 10 10 10 11 10 11 11 11 11 11 11 12 12 11 12 13 13 12 13
12 11 11 10 10 11 11 11 11 11 12 12 12 12 12 12 13 13 13 12 13 13
12 12 11 11 11 11 11 12 12 12 12 12 12 13 12 13 13 12 12 12 12 13
12 12 11 12 12 12 12 12 12 12 12 12 13 13 13 13 12 12 12 12 13 12
13 12 12 12 12 12 13 13 13 13 13 13 14 14 13 12 13 13 13 13 13 12
13 13 13 13 13 13 13 12 13 13 14 14 14 14 13 12 13 13 13 13 12 12
13 13 13 13 13 13 13 13 14 14 14 14 13 14 14 13 13 13 13 12 12 12
13 14 13 14 13 13 14 14 15 15 14 14 14 14 14 13 13 13 13 12 12 12
13 13 13 14 14 15 15 15 15 14 14 14 15 14 13 13 13 14 13 13 12 11
13 13 14 15 15 15 15 14 14 15 14 14 14 14 13 13 13 13 13 13 13 12

GFSNIL_con_lsi_012.txt.gz
Lid_Strength_Index
6 9 10 11 11 12 12 11 11 12 13 12 12 12 12 12 12 13 13 14 14 13
7 8 10 10 11 12 11 11 11 11 13 13 13 12 12 12 13 13 13 14 14 14
7 8 10 11 11 11 12 12 11 13 13 13 13 13 13 13 13 14 14 13 14 14
8 10 10 11 12 12 11 12 12 13 13 13 13 13 14 14 14 14 14 14 14 14
10 10 10 12 12 12 12 12 12 13 13 13 14 14 15 14 13 14 14 14 15 15
11 12 13 13 13 12 12 12 14 13 13 14 14 14 14 14 14 14 14 15 15 15
11 12 13 12 13 13 13 14 13 14 14 14 14 14 14 14 14 14 14 14 14 14
12 13 14 13 13 13 13 14 14 14 14 15 14 13 14 14 15 15 15 14 14 14
14 14 14 14 14 14 15 15 14 15 15 15 13 13 13 13 15 15 15 16 15 14
13 13 14 14 15 15 15 15 15 16 15 15 15 13 14 13 15 15 16 15 15 14
14 15 14 16 15 15 15 16 16 15 15 15 15 14 14 13 16 16 15 15 15 15
14 14 15 16 16 16 16 15 16 15 16 17 17 14 14 14 16 16 16 14 14 14
14 15 16 17 17 16 15 16 16 16 17 14 17 14 14 14 15 16 16 15 15 12
16 16 17 16 16 17 17 17 17 17 17 17 17 17 13 13 15 15 15 15 15 14

GFSNIL_con_lsi_015.txt.gz
Lid_Strength_Index
8 9 9 10 10 10 10 10 11 11 12 11 12 13 13 13 13 14 14 14 14 14
9 10 10 10 9 9 10 10 11 12 12 12 12 14 13 14 14 14 14 14 14 15
9 10 10 10 10 10 10 11 12 12 12 13 13 14 14 14 14 14 15 14 15 15
9 9 10 9 10 11 11 11 12 13 13 13 14 14 14 14 14 15 14 15 15 15
9 9 9 10 10 10 11 12 12 12 13 13 14 15 15 15 15 15 15 15 15 15
9 9 10 10 10 11 12 12 13 13 13 14 15 15 15 15 15 15 15 15 15 16
10 10 11 11 12 13 12 13 13 13 13 14 14 14 15 14 15 15 14 14 15 16
11 12 12 12 13 13 13 14 14 14 15 15 15 14 15 15 15 15 15 16 16 15
13 13 13 12 13 13 14 15 15 16 16 16 14 12 12 13 15 15 16 17 16 16
13 14 14 14 14 15 15 16 16 17 15 15 14 12 12 13 15 17 17 16 16 15
14 14 14 15 15 16 16 16 16 16 16 16 14 13 13 13 17 16 17 17 16 16
13 14 15 15 16 16 16 17 17 17 16 16 15 14 14 14 16 17 17 16 16 15
14 15 16 16 17 17 17 17 16 16 17 15 18 13 14 15 16 17 17 16 15 12
15 17 17 17 18 18 17 17 18 18 18 18 17 17 14 14 16 16 16 15 15 15

GFSNIL_con_lsi_018.txt.gz
Lid_Strength_Index
5 7 8 8 9 9 9 10 10 10 12 12 12 12 13 13 14 15 15 15 15 14
8 8 8 8 8 9 9 9 9 11 12 12 12 12 13 13 14 15 15 15 15 15
7 7 7 8 8 9 10 10 11 11 12 12 13 13 12 13 15 16 15 14 15 15
7 8 8 8 9 10 10 11 12 12 13 12 13 14 14 15 15 15 15 15 15 15
8 8 9 9 10 9 10 11 12 11 13 14 14 13 14 15 15 15 15 15 15 15
8 8 9 10 10 10 11 12 12 12 13 14 13 15 15 15 16 16 15 15 15 16
8 8 10 10 10 10 11 11 13 13 14 14 14 15 15 15 15 16 15 15 16 16
10 10 10 11 12 11 12 13 14 14 15 15 15 14 15 15 16 15 15 16 15 15
11 12 13 12 13 14 14 14 14 15 15 15 13 12 12 14 15 16 16 16 16 16
12 13 13 13 14 15 15 15 16 16 16 15 14 12 13 13 16 16 17 17 17 16
13 12 13 14 15 15 16 16 17 17 16 16 14 13 13 14 16 17 18 17 17 17
12 13 14 15 15 15 16 16 16 16 17 16 16 14 14 15 17 17 17 17 17 16
13 13 15 14 15 15 15 17 17 18 18 16 18 14 14 15 17 18 17 17 16 13
14 16 15 16 17 17 18 18 19 19 19 19 18 18 14 14 17 17 17 16 16 15

GFSNIL_con_lsi_021.txt.gz
Lid_Strength_Index
4 5 5 6 6 7 8 9 10 9 10 11 12 12 12 13 14 13 14 14 15 15
4 7 6 6 6 7 8 9 9 10 11 11 12 12 12 13 14 14 15 14 15 15
5 6 7 8 8 8 9 9 10 11 11 11 12 12 12 13 14 14 14 14 15 16
6 7 7 8 8 9 9 10 10 10 11 12 12 12 13 14 15 14 15 15 15 16
5 7 8 8 7 9 9 10 10 11 11 12 13 14 14 14 14 14 15 15 15 16
5 7 8 8 8 8 9 10 11 11 12 13 13 13 14 15 14 15 15 16 16 15
6 7 9 9 8 9 10 11 12 12 13 13 14 14 15 15 16 15 15 15 15 15
8 8 8 8 9 10 11 12 14 13 13 14 14 13 15 15 15 16 16 16 16 15
9 9 9 9 10 12 13 13 14 14 14 14 14 12 14 15 16 16 17 17 17 16
10 11 11 11 12 13 13 14 14 14 14 14 13 12 13 14 16 17 17 17 18 17
11 12 12 13 13 14 14 15 15 15 14 15 14 13 14 15 17 17 18 18 18 18
11 12 13 13 15 14 15 15 16 15 15 16 15 13 14 16 18 18 18 17 17 17
13 13 14 14 14 14 14 15 16 16 16 15 17 14 15 16 18 18 18 17 17 14
13 13 14 14 14 15 16 17 18 19 19 20 19 18 14 14 17 17 17 17 16 16

GFSNIL_con_lsi_024.txt.gz
Lid_Strength_Index
1 4 5 5 4 5 6 7 7 9 8 9 10 11 12 12 12 12 13 14 14 14
1 4 5 6 5 5 6 6 8 8 9 10 11 11 11 12 13 13 14 15 14 14
3 1 4 6 6 6 7 7 8 9 10 10 11 11 11 13 14 14 14 14 15 15
3 4 5 6 7 8 8 8 8 9 10 11 11 11 12 13 14 14 14 14 14 15
3 5 5 7 8 9 8 9 10 10 10 11 12 12 13 14 14 15 15 14 16 14
4 6 6 5 6 6 8 9 9 10 11 12 13 13 13 13 13 14 14 14 15 16
4 5 5 5 6 8 8 9 9 11 12 12 13 13 13 14 15 15 15 15 15 16
5 6 6 7 8 8 9 10 11 12 13 13 13 14 13 14 15 14 15 15 16 16
7 8 9 10 11 11 11 11 12 13 13 13 12 12 12 14 15 16 16 16 17 17
9 10 10 10 10 11 11 12 13 12 12 12 12 11 12 13 15 16 17 17 17 17
10 10 10 11 11 12 11 12 13 13 13 13 12 12 13 14 16 17 17 17 18 18
11 12 12 13 13 13 14 15 14 14 14 14 15 12 13 16 17 17 18 18 18 18
13 13 14 14 14 14 14 15 14 15 15 13 15 13 14 15 17 18 18 18 17 14
13 14 14 15 14 15 16 16 16 17 18 18 17 17 14 13 16 16 16 16 16 15

GFSNIL_con_lsi_027.txt.gz
Lid_Strength_Index
1 1 1 2 2 2 3 3 3 5 6 6 6 7 8 9 9 10 10 12 13 13
1 1 1 1 3 2 3 3 3 5 5 6 6 7 9 9 10 11 12 13 12 12
1 1 1 1 2 2 2 4 5 5 6 7 8 9 9 10 11 12 13 13 13 13
3 2 1 1 1 1 3 5 6 5 7 8 9 9 10 11 13 13 13 13 13 14
3 2 1 1 2 2 3 4 5 6 8 8 9 9 11 12 13 14 14 13 14 14
4 3 2 3 3 3 4 5 6 7 8 9 10 11 12 12 13 13 13 14 14 15
5 3 2 3 4 4 5 6 7 8 9 10 11 12 13 13 14 14 14 14 14 14
6 6 5 6 6 7 8 8 9 10 10 11 12 12 12 13 13 14 15 15 15 15
8 8 8 9 9 9 10 10 10 10 10 10 10 9 10 13 14 15 16 16 15 15
10 9 9 9 9 10 10 10 10 10 10 11 10 10 11 12 14 15 15 16 16 16
11 10 10 10 10 10 10 10 10 11 11 11 10 11 11 12 15 16 16 16 16 16
12 12 12 12 12 12 12 12 13 14 14 14 13 12 13 15 16 16 16 16 16 15
13 13 14 14 14 14 13 14 14 14 14 13 14 13 13 15 16 17 17 16 15 14
13 14 14 14 14 15 15 15 16 17 16 16 15 14 13 14 15 15 14 14 14 13

GFSNIL_con_lsi_030.txt.gz
Lid_Strength_Index
1 1 1 1 1 1 1 1 0 1 0 1 1 2 3 4 5 8 9 8 10 11
2 1 1 1 0 1 1 1 0 0 1 2 2 2 3 4 5 6 7 8 10 12
2 1 0 0 1 1 0 1 1 0 1 2 3 4 4 5 6 7 9 10 12 13
2 2 1 1 0 0 0 0 1 0 1 2 4 5 6 7 8 10 12 13 13 14
3 2 1 1 0 0 1 0 1 1 2 3 5 6 7 9 10 12 13 13 14 14
3 3 2 1 1 1 1 1 2 2 3 5 6 7 8 10 11 12 13 13 14 14
5 4 3 2 2 3 2 3 3 3 5 7 7 9 10 11 12 12 13 13 14 14
8 7 6 6 6 6 6 6 7 8 9 9 9 10 11 12 13 13 14 14 14 14
10 9 9 9 7 8 8 8 9 9 9 9 9 8 10 11 12 13 14 14 15 15
10 11 11 10 9 9 10 9 9 9 8 9 8 8 9 11 12 13 14 15 14 15
12 12 12 12 12 10 10 10 9 10 10 10 9 9 10 11 14 14 15 15 14 15
12 13 13 14 14 13 12 12 12 12 12 13 13 11 12 14 14 15 15 15 15 15
13 13 14 13 14 14 13 14 13 14 14 12 14 13 13 14 15 16 15 15 15 14
12 13 13 14 13 14 14 14 14 15 14 13 13 13 14 14 14 15 14 14 13 13

GFSNIL_con_lsi_033.txt.gz
Lid_Strength_Index
2 1 1 1 1 1 1 1 0 0 0 0 1 1 1 1 2 3 4 5 6 8
2 2 1 1 0 1 0 0 0 0 1 0 0 1 1 2 3 3 4 5 7 8
2 2 2 1 1 1 0 0 1 1 1 1 1 1 2 3 3 4 5 6 9 11
3 2 2 2 2 1 0 0 1 1 1 1 1 3 3 3 4 6 8 9 11 12
3 3 2 2 2 1 1 1 1 0 1 1 1 3 3 5 6 8 10 10 11 13
5 5 4 3 2 2 2 2 1 1 2 2 3 3 5 7 7 9 10 11 12 12
8 7 6 5 5 4 4 3 3 4 4 5 5 7 8 8 9 11 11 11 12 12
9 9 8 8 8 8 8 7 7 7 7 7 7 8 8 9 11 12 11 13 13 13
10 10 10 10 10 10 9 8 8 8 8 8 8 8 8 9 10 11 13 14 13 13
11 11 11 11 10 11 10 10 9 8 8 8 8 8 8 9 12 13 13 14 14 13
12 12 12 12 12 13 12 12 12 11 10 10 9 8 9 10 13 13 13 13 13 14
12 12 13 14 14 13 14 14 14 13 13 13 13 10 11 12 13 14 13 13 14 14
12 12 13 13 13 13 13 14 13 14 13 13 14 12 12 14 14 15 15 14 15 14
12 12 12 13 13 13 13 13 14 14 13 13 12 13 13 12 13 13 13 13 13 12

GFSNIL_con_lsi_036.txt.gz
Lid_Strength_Index
5 5 4 3 3 2 2 2 1 0 0 0 0 0 1 2 2 3 4 4 5 6
5 5 5 4 4 2 2 2 2 2 1 0 0 0 1 2 2 3 4 4 5 7
6 5 4 4 4 4 3 2 2 2 1 1 1 1 2 2 3 4 4 5 6 9
6 5 4 4 4 4 3 3 3 2 2 2 1 2 2 3 3 5 7 7 7 9
7 6 6 5 4 4 4 4 3 3 3 3 3 3 4 5 5 6 7 8 9 9
9 8 8 7 7 7 6 5 5 6 6 6 5 4 5 6 7 7 8 8 10 10
9 9 9 8 9 9 9 10 9 10 10 9 9 8 8 7 8 9 9 9 10 10
10 10 10 10 10 9 10 11 10 10 10 9 9 8 8 8 9 10 11 11 11 11
11 11 11 10 10 10 10 10 10 10 10 10 9 8 8 9 10 11 11 12 12 12
11 12 12 12 12 12 12 11 11 11 10 10 10 9 9 10 12 12 12 12 12 12
12 12 12 12 12 13 12 13 13 13 12 12 11 10 10 11 13 13 13 13 13 13
12 12 13 13 13 13 13 14 14 14 14 13 13 11 11 13 14 14 14 14 13 13
12 12 13 13 13 13 13 14 13 13 13 12 15 12 12 13 15 16 15 15 14 13
12 12 13 13 13 13 14 16 19 17 14 14 14 14 11 11 13 14 15 15 14 14

GFSNIL_con_lsi_039.txt.gz
Lid_Strength_Index
6 6 6 6 5 4 4 2 2 1 0 0 0 1 0 1 2 3 4 4 5 5
8 7 6 5 5 5 5 3 3 3 3 2 2 1 1 1 2 2 3 4 4 5
8 6 6 5 5 5 4 3 3 3 3 3 2 2 2 3 3 3 4 5 5 6
8 8 7 7 6 5 4 4 4 4 4 4 4 4 4 5 5 5 5 5 6 7
9 9 9 9 9 8 7 7 6 6 6 7 6 6 7 7 7 7 6 7 7 8
10 10 10 9 9 9 9 10 10 10 10 10 9 8 8 8 9 8 7 7 7 8
10 10 9 9 9 10 11 11 11 11 11 11 11 10 10 10 10 10 9 9 8 8
10 10 10 10 10 9 10 11 11 11 11 11 10 10 11 11 11 12 11 11 10 10
11 11 11 11 10 10 10 10 11 11 10 10 9 9 9 11 12 12 12 12 12 11
11 12 12 11 11 12 12 12 12 11 11 11 10 9 10 11 13 13 13 13 12 12
12 12 12 12 12 12 12 13 13 12 12 11 10 10 10 12 14 14 14 14 14 14
12 12 12 13 13 13 14 14 14 13 13 13 12 10 11 12 15 16 16 15 14 14
12 12 13 13 13 13 13 13 13 14 17 13 18 11 11 14 16 18 16 15 15 12
12 12 13 13 13 14 19 20 19 15 15 16 15 14 11 12 16 17 17 16 16 15

GFSNIL_con_lsi_042.txt.gz
Lid_Strength_Index
9 8 7 6 6 6 6 4 3 2 2 3 2 1 1 2 2 2 2 2 4 4
8 7 7 6 6 6 5 3 3 4 4 4 3 2 2 3 3 2 2 3 3 4
9 8 8 8 8 6 5 4 4 4 4 4 4 3 3 4 4 4 4 3 3 5
10 9 10 10 9 8 7 7 6 5 6 6 6 6 6 7 7 6 6 6 6 7
11 10 10 10 10 9 10 10 9 9 9 8 8 8 9 9 9 7 8 8 8 9
11 11 10 10 10 10 10 11 11 11 11 11 10 10 10 10 10 10 9 9 10 10
11 11 9 9 9 9 10 12 11 11 11 11 11 11 11 12 12 12 11 11 10 11
10 10 10 10 10 10 10 11 12 11 11 11 10 10 12 12 12 12 12 12 11 11
11 10 11 11 11 11 11 11 11 11 11 10 10 9 9 12 13 12 12 13 13 12
11 11 11 11 12 12 12 12 12 11 11 11 10 9 10 10 13 14 14 14 14 13
11 12 12 12 13 13 13 13 12 12 12 11 10 9 10 11 13 15 16 15 16 15
12 12 12 13 13 13 13 14 13 13 13 13 13 11 11 15 18 18 18 15 16 15
12 12 13 13 13 13 13 14 14 18 18 13 20 11 11 15 17 19 17 17 16 12
12 13 13 13 15 18 21 17 15 15 15 18 15 15 12 12 16 17 17 17 17 16

GFSNIL_con_lsi_045.txt.gz
Lid_Strength_Index
8 8 8 8 8 8 7 6 3 3 4 4 3 4 3 3 3 3 2 3 4 4
10 9 9 9 8 7 6 4 4 4 5 4 4 3 3 4 3 2 2 3 2 3
10 10 10 10 9 7 7 6 6 6 6 6 6 5 5 6 5 4 5 5 5 6
11 11 10 10 10 10 10 9 8 8 7 7 8 7 8 8 7 6 7 7 8 8
11 11 11 11 11 11 11 11 10 10 10 9 9 10 10 10 10 9 9 9 9 9
11 11 11 11 11 11 11 11 11 11 11 11 11 11 11 11 11 11 11 11 11 11
11 12 11 9 9 10 10 11 12 11 11 11 12 12 12 12 13 13 12 12 12 12
10 10 10 10 10 10 10 11 12 12 11 11 10 11 13 12 12 11 12 12 12 11
11 11 11 11 11 11 11 11 11 11 11 10 10 9 10 11 12 12 12 13 12 12
11 11 11 11 12 12 12 12 12 11 10 10 10 9 10 11 14 15 15 15 15 14
11 12 12 12 13 13 12 12 12 12 12 11 10 10 10 12 16 17 17 16 18 16
11 12 12 13 13 13 13 13 14 14 14 17 17 11 12 15 19 18 18 16 16 16
12 12 13 13 13 13 13 14 17 20 20 14 21 11 12 16 17 19 17 17 17 13
12 13 13 13 14 15 15 15 15 19 20 19 15 15 12 12 16 17 17 17 17 16

GFSNIL_con_lsi_048.txt.gz
Lid_Strength_Index
9 8 8 8 8 7 7 7 6 5 5 4 4 4 3 4 4 4 2 3 3 3
10 9 9 9 8 8 7 6 6 6 6 5 5 4 3 3 4 4 4 4 4 4
11 10 10 10 10 10 10 9 8 7 7 7 7 7 7 6 4 5 5 5 6 7
11 11 11 11 11 11 11 10 10 9 9 9 9 9 8 8 6 6 7 8 8 9
12 12 12 12 12 12 12 11 11 11 11 11 10 11 11 11 11 10 11 11 11 11
13 13 13 12 11 11 11 12 12 12 12 12 12 12 12 12 12 12 12 12 12 12
13 12 11 10 10 10 10 11 12 12 12 12 12 12 13 13 12 12 11 11 11 11
11 10 10 10 10 10 10 11 11 10 10 10 10 11 12 11 11 11 12 12 11 10
11 11 11 11 11 11 11 11 11 11 11 10 10 10 10 11 12 12 12 13 13 12
11 11 11 11 11 12 12 11 11 11 10 10 10 9 10 11 15 16 17 16 16 14
11 11 12 12 12 12 12 12 12 12 13 13 11 10 11 13 17 19 19 17 19 17
11 12 12 13 13 13 13 13 14 16 18 19 18 12 12 16 20 19 19 17 16 16
11 12 13 13 13 13 13 14 17 20 21 14 21 12 13 16 18 20 17 17 17 13
11 12 13 13 13 14 15 18 20 21 21 19 16 16 12 12 16 17 17 17 16 16

GFSNIL_con_lsi_051.txt.gz
Lid_Strength_Index
7 7 6 6 6 5 5 5 4 3 3 3 2 2 1 2 2 2 2 3 2 2
8 8 8 8 7 6 6 5 5 5 5 5 4 3 2 2 3 3 4 3 3 4
9 9 9 9 8 8 8 7 7 6 6 6 6 5 4 4 4 4 4 4 5 5
10 10 9 9 10 9 9 9 9 8 8 9 8 7 6 6 5 5 6 6 6 7
11 10 10 10 10 10 10 10 10 10 10 9 9 9 8 8 8 8 9 9 9 9
11 11 11 11 10 10 10 11 11 10 10 10 10 10 10 10 10 10 10 10 10 10
11 11 11 10 10 11 11 11 10 10 11 11 11 11 11 10 10 10 10 10 10 10
9 9 10 10 10 10 10 10 10 10 10 10 10 11 10 10 11 11 11 11 10 10
10 10 10 11 11 11 11 10 10 10 10 10 10 9 9 10 11 11 12 12 12 11
10 11 11 11 11 11 11 11 11 10 10 10 10 10 10 11 13 14 14 14 13 13
11 12 12 12 12 12 11 12 12 12 12 11 11 10 11 13 15 15 15 14 14 13
11 12 12 12 13 12 12 13 14 14 14 14 13 12 12 15 15 15 15 14 13 13
11 11 12 12 13 12 12 14 14 15 16 13 15 12 13 15 15 16 16 15 15 13
11 12 12 13 13 13 13 15 16 16 17 16 14 14 12 13 15 15 15 15 15 15

GFSNIL_con_lsi_054.txt.gz
Lid_Strength_Index
6 5 5 5 4 4 4 3 3 2 2 2 1 -0 -0 -0 0 1 1 2 3 3
6 6 6 6 5 4 4 4 4 3 3 2 2 2 2 2 2 3 3 3 2 2
7 6 6 6 6 6 5 5 5 4 4 4 3 3 3 3 3 3 3 3 3 3
7 7 7 7 7 7 7 7 6 6 6 5 5 4 4 5 4 4 5 5 4 5
7 7 7 7 8 7 7 7 7 7 7 6 7 6 6 6 6 6 6 6 6 6
8 8 8 8 8 8 8 8 8 8 8 8 8 8 7 7 7 7 7 7 7 7
8 8 8 8 8 8 9 10 10 9 9 10 9 9 9 9 9 9 9 8 8 8
8 8 8 9 9 10 10 10 11 10 10 9 10 9 9 9 9 9 9 9 9 8
8 8 9 9 9 10 10 10 10 10 10 9 10 9 9 9 10 10 10 10 10 10
8 9 10 10 10 10 11 10 10 10 10 10 10 10 10 11 11 11 11 11 11 11
9 10 10 10 11 11 11 11 10 11 10 10 10 11 11 12 12 12 13 12 12 11
9 10 10 11 11 11 12 12 13 12 12 12 11 12 12 12 12 13 13 12 12 12
9 10 11 11 12 12 12 13 13 14 13 12 12 12 13 13 13 14 14 14 13 13
9 10 11 12 12 12 12 12 13 13 13 13 12 11 12 13 14 14 14 14 14 13

GFSNIL_con_lsi_057.txt.gz
Lid_Strength_Index
5 5 5 5 5 5 4 4 3 3 2 2 1 1 1 0 0 1 1 1 2 2
6 6 5 6 5 5 5 5 4 3 3 3 2 2 2 2 2 2 2 3 2 3
6 6 6 6 6 6 5 5 5 4 4 4 3 3 3 3 3 3 4 3 4 4
7 7 7 7 6 6 6 6 6 6 5 5 5 4 4 4 4 4 4 5 4 4
7 7 7 7 7 7 7 7 7 7 7 6 6 5 5 5 5 6 6 6 5 6
7 8 8 7 7 7 7 7 7 8 8 8 8 7 7 7 7 7 7 7 7 7
7 7 7 7 7 7 8 8 8 8 8 9 9 9 9 9 9 8 8 8 8 8
6 6 6 7 7 8 8 9 9 9 9 9 10 10 10 9 9 9 9 9 9 9
6 7 7 7 8 8 9 9 9 9 9 10 9 9 9 9 9 10 10 10 10 10
7 8 8 8 9 9 10 10 10 9 9 10 10 9 10 10 10 10 11 11 11 11
7 8 9 9 10 10 10 10 10 10 10 11 10 10 11 11 12 12 13 12 12 11
8 9 9 10 10 10 10 11 12 11 11 12 12 11 12 12 13 13 13 13 12 12
8 9 10 10 11 11 11 13 12 13 13 12 13 12 13 13 13 14 14 14 13 12
8 9 9 10 11 12 12 12 12 13 13 13 13 12 12 13 14 14 15 15 15 14

GFSNIL_con_lsi_060.txt.gz
Lid_Strength_Index
6 6 6 6 7 7 7 6 6 5 5 4 4 3 3 2 1 2 2 2 2 2
7 7 7 7 7 7 7 6 7 6 6 5 5 4 3 3 3 3 3 3 3 3
8 8 8 8 8 8 8 7 7 7 6 6 6 5 4 4 3 4 4 4 4 4
8 8 8 8 9 9 8 8 8 8 7 7 7 7 5 5 5 5 5 5 5 6
7 8 9 8 9 9 9 9 9 9 9 8 8 8 8 7 7 7 7 7 7 8
8 8 8 8 8 8 9 9 9 9 9 9 9 9 10 9 9 9 9 10 9 10
7 7 7 8 8 9 9 10 10 10 10 10 10 10 10 10 11 11 11 11 11 10
7 7 7 7 7 8 9 10 10 10 9 9 9 9 10 9 10 10 11 11 10 10
7 7 8 8 9 9 10 10 10 9 9 9 9 9 8 9 10 10 11 11 11 11
8 8 8 8 8 9 11 10 10 10 9 10 10 9 9 9 10 11 11 12 12 12
8 9 8 9 9 10 11 10 10 10 10 11 10 10 10 11 14 15 14 14 14 13
9 10 9 10 10 10 10 11 12 11 11 12 12 11 11 13 17 17 16 15 14 14
9 9 10 10 10 10 11 12 12 13 13 12 15 12 12 14 16 16 15 15 14 12
9 9 10 10 10 12 12 12 13 13 15 15 14 14 12 13 16 16 17 16 16 15

GFSNIL_con_lsi_063.txt.gz
Lid_Strength_Index
7 7 6 6 6 6 7 7 6 6 5 5 5 5 4 4 4 4 3 3 2 2
7 6 7 7 7 7 7 7 7 7 6 6 6 5 5 4 4 5 4 4 3 3
7 7 7 8 7 8 8 8 8 8 7 7 7 7 6 5 4 4 5 4 5 5
8 7 8 8 8 8 8 8 9 8 8 8 9 8 8 5 5 6 6 6 6 7
8 8 8 8 9 9 9 9 9 9 9 9 10 9 9 7 7 7 7 6 7 8
9 8 8 8 8 8 9 9 9 9 10 10 10 11 11 8 8 9 9 9 9 9
8 8 9 8 8 7 8 10 10 10 10 10 10 11 11 10 10 10 11 10 11 11
7 7 7 7 8 8 8 8 9 9 9 10 9 9 10 10 10 10 10 10 10 10
8 8 8 9 9 9 10 10 10 10 9 9 9 8 8 9 9 10 11 11 11 10
8 8 9 9 9 10 11 11 11 10 9 9 9 8 7 8 10 11 11 12 12 12
9 9 9 9 9 9 11 12 11 10 9 10 9 9 9 9 12 12 13 12 13 14
9 10 10 11 10 10 10 10 11 10 11 11 11 10 10 13 17 16 16 15 15 14
9 10 11 10 10 10 10 12 12 13 12 11 12 10 11 14 16 16 16 16 15 12
10 10 11 10 11 11 12 12 12 12 13 13 13 14 11 12 15 16 17 17 16 14

GFSNIL_con_lsi_066.txt.gz
Lid_Strength_Index
5 6 6 6 6 7 7 6 5 5 5 5 5 5 5 5 5 5 5 5 5 4
6 6 7 6 6 7 6 6 6 6 6 6 6 6 6 6 6 6 6 6 5 4
7 7 7 7 7 7 6 7 7 7 7 7 7 7 7 7 6 5 5 5 5 5
7 7 8 8 8 8 7 7 8 8 8 8 8 8 9 8 6 6 6 6 6 6
7 7 8 9 8 8 9 9 9 9 9 9 9 9 10 9 7 7 7 7 7 8
8 8 9 8 9 9 9 9 9 9 9 9 9 10 10 10 9 8 8 8 8 9
8 8 8 8 8 8 9 9 10 9 9 9 11 11 11 11 11 11 10 10 10 10
8 7 8 8 8 9 9 9 9 9 9 9 9 9 9 10 9 10 10 10 11 10
8 8 8 9 9 10 10 10 10 10 10 10 9 7 7 7 8 9 9 10 10 9
8 9 9 9 10 10 11 11 11 11 10 10 10 7 7 7 9 10 10 11 11 11
9 9 9 10 10 11 12 12 12 11 11 11 9 8 8 8 10 11 11 11 12 13
9 10 10 11 11 11 11 11 11 10 10 11 11 9 9 11 13 13 13 13 13 14
9 10 10 11 12 11 10 11 11 12 11 10 12 9 10 13 16 16 16 16 15 11
9 10 11 12 11 11 11 11 12 12 12 12 11 12 9 11 15 16 16 16 15 15

GFSNIL_con_lsi_069.txt.gz
Lid_Strength_Index
3 5 4 4 5 5 6 6 5 5 5 5 5 5 5 5 5 5 5 6 6 5
5 5 6 5 5 5 5 5 5 5 6 6 5 6 6 6 6 6 7 7 7 6
7 6 7 7 7 7 6 6 7 7 7 7 7 7 6 7 6 6 6 6 7 6
8 8 7 7 7 7 7 7 7 8 8 8 8 8 9 8 8 7 6 6 6 6
8 8 7 7 7 7 7 8 8 9 9 9 9 9 10 9 9 8 7 6 6 7
7 8 8 8 7 7 8 8 8 9 10 10 9 9 10 9 9 9 8 7 7 8
8 8 8 9 9 9 9 9 9 10 9 9 9 10 10 10 10 10 10 9 8 9
8 8 8 8 8 8 9 10 10 10 9 9 9 9 10 9 10 9 8 9 8 8
8 8 9 9 9 10 10 10 10 10 10 10 9 8 7 8 10 8 9 9 9 8
8 9 9 9 10 10 11 11 11 11 11 11 11 7 7 6 8 9 9 10 10 10
9 9 10 10 10 11 12 12 12 11 11 11 10 8 7 8 10 10 11 11 11 12
8 9 10 10 11 11 12 12 13 11 10 11 12 8 8 10 12 12 12 12 12 12
9 9 10 10 11 12 12 12 11 12 11 10 12 9 8 11 13 13 14 14 14 11
9 9 10 11 12 12 12 12 12 12 12 11 11 11 8 10 15 15 16 16 16 15

GFSNIL_con_lsi_072.txt.gz
Lid_Strength_Index
4 3 3 3 3 3 4 4 5 5 5 5 5 6 5 6 6 6 5 5 5 5
5 4 4 4 5 5 4 5 5 5 6 6 6 6 6 6 6 6 6 6 6 6
7 6 5 5 6 5 5 6 6 7 6 6 7 7 7 7 6 7 6 6 6 6
7 7 7 7 7 8 8 7 6 7 7 7 8 8 8 8 8 8 7 7 7 6
7 7 7 7 7 7 7 7 8 8 8 8 8 9 9 9 9 9 9 8 7 7
7 7 7 7 8 7 8 8 8 8 9 9 9 9 10 10 10 10 9 8 7 6
8 8 8 7 8 8 9 9 9 9 9 10 10 10 10 10 10 10 9 9 8 7
8 8 8 8 8 8 9 10 11 11 10 10 9 9 10 9 10 10 10 10 9 8
8 8 9 9 9 9 10 10 10 10 10 10 9 7 7 8 10 10 10 9 9 8
9 9 9 9 10 10 11 11 11 11 11 11 11 7 7 6 8 10 9 10 9 9
9 9 10 10 10 11 12 12 12 12 11 11 10 7 7 6 9 11 10 10 10 11
9 10 10 10 11 11 12 12 13 11 11 12 10 8 7 10 12 12 12 11 11 11
9 10 10 10 11 12 12 12 11 12 12 10 11 8 8 10 12 12 12 13 13 10
10 10 10 11 12 12 12 11 11 11 12 12 10 11 8 9 13 14 13 13 14 14

GFSNIL_con_lsi_075.txt.gz
Lid_Strength_Index
1 1 1 2 2 2 3 3 3 4 4 4 5 5 5 5 5 4 4 4 4 4
4 2 2 2 2 2 3 3 3 3 4 5 5 5 5 5 5 5 4 4 4 4
6 5 4 3 3 3 3 3 5 5 5 5 6 6 6 6 5 5 5 5 5 5
5 5 5 5 4 4 5 5 6 6 6 6 7 7 7 6 6 6 6 5 5 5
6 6 5 6 5 5 5 6 6 7 7 6 7 7 7 8 7 7 7 6 6 5
6 6 6 6 5 5 6 7 7 6 7 8 7 7 8 8 7 7 7 7 6 5
7 6 6 6 6 5 5 7 7 7 7 7 8 8 8 8 8 8 7 7 6 6
7 7 7 6 6 6 6 7 7 8 8 8 8 9 9 8 7 7 7 7 7 6
7 7 7 7 7 7 7 7 7 8 8 8 8 7 7 7 8 8 8 8 7 7
8 7 7 7 7 8 8 8 8 8 8 8 8 7 6 6 7 8 8 8 8 8
7 7 7 8 8 8 9 9 9 9 9 9 9 7 7 6 7 8 8 9 9 9
8 8 8 9 8 9 9 10 10 9 9 10 9 7 7 8 9 9 9 9 10 10
9 9 9 9 9 9 9 10 10 11 10 9 10 7 7 8 10 10 10 11 11 9
8 9 9 9 9 10 10 10 10 11 11 10 9 8 7 7 10 11 11 12 13 13

GFSNIL_con_lsi_078.txt.gz
Lid_Strength_Index
1 1 1 1 1 1 1 1 1 1 2 2 3 4 4 5 5 4 4 4 4 3
2 2 1 1 0 1 0 1 1 1 2 3 3 3 4 4 5 4 4 3 3 4
4 4 3 2 1 1 1 1 1 2 3 4 4 4 4 4 5 5 4 4 4 4
4 4 4 3 3 2 2 2 3 4 5 4 4 3 4 4 4 4 4 4 4 4
4 4 4 4 3 3 2 2 4 6 6 5 5 5 5 6 6 6 6 6 5 4
5 4 4 4 3 4 3 2 3 5 6 6 6 5 5 5 5 5 5 5 5 4
6 5 4 4 4 4 3 3 3 4 6 6 5 5 5 6 6 6 5 5 5 5
6 5 5 5 5 4 4 4 4 4 5 6 6 6 6 6 6 6 6 6 5 5
6 6 6 5 5 5 5 4 4 5 5 6 6 7 7 6 7 6 6 6 6 5
7 7 6 6 6 5 5 5 5 5 5 5 5 6 6 6 6 6 6 6 6 6
7 7 6 6 6 5 5 5 5 5 5 5 5 6 6 6 6 6 6 6 6 6
6 7 7 7 6 5 5 6 6 5 6 6 6 7 6 6 6 7 7 7 6 7
6 6 6 6 6 6 6 6 6 8 6 7 6 7 6 6 8 8 8 7 7 8
6 5 6 6 5 6 7 7 7 9 9 8 7 6 6 6 9 8 8 9 9 9

GFSNIL_con_lsi_081.txt.gz
Lid_Strength_Index
1 1 1 1 1 1 1 1 0 0 1 1 1 2 3 3 4 4 4 4 4 4
3 3 2 1 1 1 1 1 1 1 1 1 2 3 3 3 4 4 3 4 4 4
4 4 3 2 1 1 1 1 1 1 1 2 3 3 4 4 3 3 3 3 2 3
4 4 4 4 3 2 1 1 1 2 2 3 4 3 3 3 3 3 3 3 3 3
5 5 4 4 3 3 2 1 2 3 3 4 4 4 4 4 4 4 4 4 4 4
5 5 5 4 4 4 3 2 2 3 5 6 5 5 5 5 5 6 5 5 5 5
6 6 5 5 5 4 4 3 3 3 4 5 6 6 6 6 6 6 6 5 5 5
6 6 6 5 5 4 4 4 4 3 4 4 6 7 6 6 6 6 6 6 6 6
6 7 6 6 6 5 5 4 4 4 4 5 5 5 6 6 6 6 6 6 6 6
6 6 6 6 5 5 5 5 5 5 5 5 5 6 5 6 5 6 6 6 6 6
7 7 6 6 6 6 5 5 5 5 5 5 5 6 5 5 5 5 6 6 6 6
7 7 6 6 6 6 5 5 5 5 5 6 5 5 5 5 6 7 6 6 6 6
6 6 6 6 6 6 5 5 5 6 6 5 6 6 6 6 7 8 8 7 7 6
7 7 6 5 5 6 6 6 6 6 6 6 6 6 6 6 7 8 8 8 9 8

GFSNIL_con_lsi_084.txt.gz
Lid_Strength_Index
3 2 1 1 1 1 1 1 1 1 1 1 1 1 1 2 3 4 4 4 4 5
6 5 4 3 2 2 1 1 2 2 1 1 1 2 2 3 3 3 3 4 4 4
6 6 6 5 4 3 2 2 2 1 1 1 1 2 2 3 3 4 4 4 4 4
7 6 5 5 5 4 3 2 1 1 1 2 2 3 3 4 4 4 4 4 4 4
7 7 7 6 6 6 5 4 3 3 2 2 3 3 3 4 5 4 5 5 5 5
7 7 7 7 6 5 5 5 4 4 4 3 3 4 4 5 5 6 5 5 5 4
8 8 7 7 6 6 6 6 5 4 4 4 4 5 5 6 6 7 6 6 7 6
8 8 8 7 7 7 7 6 6 6 5 5 5 5 6 6 7 7 7 8 7 7
8 8 8 8 8 7 7 7 6 6 6 6 6 5 5 6 7 7 7 8 7 7
8 8 8 8 8 8 7 7 7 7 6 7 6 5 5 5 6 6 7 8 8 8
8 9 8 8 7 7 6 6 6 6 6 6 6 4 5 5 8 8 8 7 7 8
9 9 9 9 7 7 7 7 7 5 5 6 6 4 4 5 9 9 9 7 7 7
10 10 10 9 8 7 7 7 7 7 6 5 6 4 4 5 9 9 9 8 7 5
10 10 10 10 9 8 7 7 7 7 6 6 6 5 4 4 6 8 9 8 9 8

GFSNIL_con_lsi_087.txt.gz
Lid_Strength_Index
4 3 1 1 2 2 1 2 2 2 2 2 2 1 1 1 2 2 2 3 4 4
6 5 6 4 3 1 1 1 1 1 1 1 1 1 1 2 2 2 2 3 3 4
7 7 7 6 6 5 4 3 2 2 2 1 1 1 2 2 2 2 3 3 3 4
8 8 7 7 7 7 6 6 5 4 3 2 1 1 2 2 3 3 4 3 3 4
8 8 8 8 7 7 6 6 6 4 4 3 2 1 2 3 3 4 4 4 4 5
8 8 8 8 7 7 7 7 6 5 5 4 3 2 2 2 3 3 4 4 5 5
9 9 9 8 8 7 7 7 7 6 5 5 4 3 3 3 4 5 5 5 5 5
9 8 8 8 8 8 7 7 7 7 6 6 5 4 4 4 5 5 6 6 6 6
9 9 9 8 8 8 7 7 7 7 7 7 6 5 4 5 5 5 6 7 7 7
9 9 9 9 8 8 8 7 7 7 7 7 6 4 4 4 6 6 6 6 6 7
11 10 9 9 9 9 8 7 7 7 6 6 6 4 4 3 6 7 7 7 8 8
11 11 10 11 10 10 9 8 7 7 7 7 6 4 4 4 7 8 8 8 8 8
11 11 11 11 11 10 9 8 8 8 8 6 6 5 4 4 7 8 7 8 8 6
12 12 11 11 11 11 10 9 10 9 9 8 7 5 4 4 5 6 7 7 7 7

GFSNIL_con_lsi_090.txt.gz
Lid_Strength_Index
5 5 4 2 2 2 2 2 2 2 2 2 2 1 1 1 1 2 2 3 3 3
7 6 6 6 5 4 3 2 2 1 2 2 2 2 2 2 2 2 2 2 2 3
9 9 8 7 7 7 6 5 4 3 2 2 1 1 2 1 1 2 2 2 2 2
10 9 9 9 9 9 8 8 7 5 5 4 3 2 2 2 2 2 2 2 3 3
9 9 9 9 9 9 9 8 8 7 6 6 5 3 2 2 2 2 2 3 4 4
9 9 9 9 8 8 8 8 8 7 7 7 6 5 3 2 2 2 2 3 3 4
10 10 9 9 8 8 8 8 8 8 8 7 6 5 5 4 3 3 4 3 4 3
10 10 10 10 9 9 9 8 8 8 7 7 7 6 6 5 5 5 5 5 5 5
11 11 11 10 10 10 9 9 8 8 8 8 6 5 5 5 6 6 5 5 6 5
13 12 12 11 11 11 11 10 9 9 8 8 7 5 4 4 6 7 7 6 6 6
13 13 13 12 12 12 11 10 10 9 9 8 7 6 5 5 6 7 7 8 7 7
14 14 13 13 13 11 11 10 10 9 9 9 9 6 5 5 6 7 7 7 7 7
14 14 14 14 14 12 11 11 10 9 10 9 10 7 6 5 6 7 7 6 7 5
13 14 14 14 14 13 13 12 12 11 11 11 10 9 7 6 6 6 6 6 6 6

GFSNIL_con_lsi_093.txt.gz
Lid_Strength_Index
6 5 5 5 4 3 3 3 2 2 2 2 2 2 2 2 2 2 2 2 2 2
9 8 7 7 7 6 5 5 3 2 2 2 2 2 2 2 2 2 2 2 2 2
10 9 9 9 9 8 8 7 6 5 4 4 2 2 2 2 2 2 2 2 2 2
10 10 10 10 10 9 9 9 8 8 6 6 5 4 3 2 2 2 2 2 2 2
10 10 11 11 11 10 10 9 9 9 8 7 6 6 4 4 3 3 3 3 3 3
11 10 10 10 9 9 10 11 10 10 10 9 8 7 7 5 4 4 3 3 3 3
11 11 11 11 10 10 9 9 9 9 9 9 8 8 7 7 6 5 4 4 4 3
12 11 11 11 11 10 10 10 10 9 9 8 8 7 7 7 8 7 6 6 5 5
13 13 13 13 12 12 12 11 11 10 10 10 9 7 5 5 7 7 7 6 6 5
14 14 14 14 14 14 13 13 13 12 11 10 10 7 7 6 7 8 8 8 7 7
14 15 15 15 15 15 14 14 13 13 12 12 10 8 7 6 7 7 7 8 8 8
15 15 15 16 16 16 15 15 15 13 11 11 11 8 8 7 8 8 7 6 6 7
15 15 16 16 16 16 15 15 14 13 13 11 11 8 7 8 8 8 7 7 6 5
15 16 16 16 16 16 16 15 14 13 13 12 11 10 6 6 9 9 8 7 7 6

GFSNIL_con_lsi_096.txt.gz
Lid_Strength_Index
7 6 6 7 6 6 6 5 3 2 2 2 2 2 2 2 2 2 2 2 2 2
9 9 8 8 8 8 7 6 6 5 4 2 2 2 2 2 2 2 2 2 2 2
10 10 10 9 10 9 9 9 8 7 6 5 5 4 3 2 2 2 2 2 2 2
11 10 11 11 10 10 10 10 10 9 9 8 7 6 5 4 3 3 3 3 3 3
12 12 12 12 12 11 11 11 10 10 10 10 9 8 7 7 5 4 4 3 3 3
12 12 12 11 11 11 10 10 10 10 11 11 11 10 9 9 8 7 6 5 4 4
13 13 12 12 11 11 11 11 11 10 10 10 9 8 8 8 8 8 8 7 6 5
13 13 13 13 13 13 12 12 12 11 11 11 10 9 8 8 8 8 8 7 7 6
14 14 15 14 14 14 14 14 13 13 12 12 10 9 9 8 9 8 8 8 8 7
15 15 15 15 16 16 16 15 15 15 14 13 13 9 9 9 10 9 9 8 8 8
15 16 16 16 16 17 16 16 16 16 15 15 14 10 10 9 11 11 9 8 8 7
15 16 16 17 17 17 17 17 17 16 16 16 15 11 11 11 12 11 10 8 7 7
16 17 17 17 17 17 17 17 17 17 17 15 16 13 11 11 12 11 10 8 7 6
16 17 17 17 18 18 18 18 18 17 18 17 16 14 10 8 9 9 9 8 8 8

GFSNIL_con_lsi_099.txt.gz
Lid_Strength_Index
8 7 7 7 6 7 7 7 6 4 2 2 2 2 2 3 2 2 2 2 2 2
8 9 9 8 8 8 8 7 8 7 6 5 5 4 3 2 2 2 2 2 2 2
10 10 10 10 10 10 9 9 9 9 8 7 6 6 5 4 4 3 2 2 2 2
11 11 11 11 11 11 11 10 10 10 10 9 9 8 7 7 6 5 5 4 3 2
12 12 12 12 12 11 12 11 11 11 11 10 9 9 9 9 8 8 7 6 5 4
12 12 12 12 11 11 11 11 11 10 10 10 9 9 8 8 8 8 9 8 7 6
13 13 12 12 12 12 12 12 11 11 11 10 10 9 9 9 8 8 7 7 7 7
13 13 13 13 13 13 12 12 12 12 12 11 11 10 10 10 9 9 9 8 8 7
13 13 13 13 13 13 13 13 13 13 13 12 12 11 9 10 10 10 10 10 9 8
13 14 14 14 14 14 14 14 14 14 14 14 13 11 10 10 11 11 11 10 10 10
14 14 14 14 15 15 14 14 15 15 14 14 14 12 11 11 11 11 11 11 11 10
15 15 15 15 15 15 15 15 15 15 15 15 15 13 12 12 12 12 12 11 11 11
15 16 16 16 16 16 16 16 16 16 16 16 16 15 13 13 13 13 13 12 12 11
15 16 16 16 16 17 17 17 17 17 16 17 16 16 14 13 13 13 13 12 12 12

GFSNIL_con_lsi_102.txt.gz
Lid_Strength_Index
8 8 8 7 8 7 7 7 6 6 6 6 5 3 1 2 2 2 3 3 3 4
9 9 9 8 7 7 7 7 8 8 8 7 7 6 5 4 4 3 3 3 3 3
10 10 10 10 10 9 9 9 8 9 8 8 8 8 7 6 6 5 5 4 3 2
11 11 11 11 11 11 11 11 11 11 10 9 9 8 8 8 8 8 8 7 6 5
12 12 12 12 12 11 12 12 12 11 12 12 11 10 9 9 8 9 9 8 8 7
11 10 10 10 10 10 10 10 10 10 10 10 10 9 9 9 9 9 8 8 8 8
10 10 11 10 10 11 10 11 11 11 11 10 10 9 9 9 9 9 9 8 7 7
11 11 11 11 11 11 11 11 11 11 11 11 11 11 10 10 10 10 10 9 9 8
11 11 11 11 11 11 11 12 12 12 12 12 12 11 11 10 10 10 11 11 10 9
11 11 11 11 12 12 12 12 12 13 13 13 13 12 12 11 11 11 11 11 11 11
12 12 12 13 13 13 13 13 13 13 13 13 14 13 13 12 12 12 12 12 11 11
13 13 13 13 13 13 13 13 13 13 13 14 14 14 14 14 14 13 13 13 12 12
14 15 15 15 15 14 14 14 14 15 14 14 15 14 14 14 14 14 14 13 12 12
14 14 14 14 14 14 15 15 15 15 14 14 14 14 14 13 14 14 14 13 13 12

GFSNIL_con_lsi_105.txt.gz
Lid_Strength_Index
6 6 5 6 6 7 7 6 6 6 7 6 6 6 5 5 4 2 2 2 2 3
8 8 9 9 9 7 8 8 7 7 7 7 7 8 7 7 8 6 5 4 3 3
10 10 10 10 10 10 10 10 9 10 9 8 8 8 8 8 8 8 7 7 7 6
11 11 11 11 11 11 11 11 11 11 11 11 11 11 11 10 9 9 9 8 8 7
11 11 12 12 12 12 12 11 11 12 12 12 12 11 12 12 11 11 11 10 9 8
9 10 10 10 9 9 10 10 10 10 10 10 11 10 11 10 10 9 9 9 10 9
10 10 10 10 10 10 10 11 11 11 11 11 11 11 11 10 10 10 9 9 9 9
10 10 10 10 11 11 11 11 11 11 12 12 12 12 12 11 11 11 10 10 10 9
10 10 11 11 11 11 12 12 12 12 12 13 13 11 12 12 12 12 12 12 11 10
11 12 12 12 12 12 12 12 12 12 13 13 13 12 12 12 13 13 12 12 12 12
13 14 14 14 14 14 13 14 14 14 14 14 14 13 13 13 13 13 12 12 12 13
13 14 14 14 14 13 13 13 13 13 13 14 13 12 13 13 14 14 14 13 13 13
13 13 13 13 13 12 12 13 12 13 12 12 13 12 12 12 13 14 14 13 12 11
13 13 13 13 13 13 13 13 13 13 13 13 13 13 12 12 13 13 13 13 13 12

GFSNIL_con_lsi_108.txt.gz
Lid_Strength_Index
8 7 7 8 8 6 6 6 6 5 6 6 6 5 6 7 7 7 7 6 6 3
8 8 8 8 8 10 10 9 9 9 9 8 7 7 7 8 8 8 7 8 7 6
11 11 11 11 11 11 11 11 11 11 11 10 10 10 9 8 9 10 10 9 9 8
12 12 12 12 12 12 12 12 12 12 12 12 12 11 11 11 11 11 11 10 10 9
11 11 13 12 11 11 11 11 11 11 11 11 11 12 13 13 12 12 12 12 11 10
12 12 12 12 12 11 12 12 12 12 12 12 12 12 11 11 11 11 11 12 12 11
13 13 13 13 12 12 13 13 13 13 13 13 13 12 12 12 12 12 11 11 11 11
13 13 13 13 13 13 13 14 14 14 14 14 14 13 13 13 13 13 13 13 11 11
14 14 15 15 15 15 15 15 15 15 15 15 14 11 11 12 14 14 14 14 13 12
14 14 14 15 15 15 15 15 15 15 15 15 15 12 11 12 14 15 15 15 14 13
14 14 14 15 15 16 15 16 15 15 14 14 13 11 11 11 14 15 15 14 14 14
15 15 15 16 16 15 15 16 16 15 15 15 14 11 11 12 14 14 14 13 13 13
15 15 16 16 16 16 15 15 14 15 15 13 14 11 10 11 14 15 14 13 13 11
15 16 16 16 16 16 16 16 16 15 15 15 14 14 10 10 13 13 14 14 13 13

GFSNIL_con_lsi_111.txt.gz
Lid_Strength_Index
8 8 8 8 8 9 8 8 7 8 7 7 6 5 6 6 7 7 6 8 8 7
10 10 10 10 9 8 9 10 10 10 10 10 10 9 9 8 9 8 8 8 8 7
12 13 13 12 12 12 12 11 11 11 11 11 11 11 10 10 10 10 9 9 9 9
12 12 12 13 12 12 12 12 12 12 13 13 12 11 11 11 11 12 12 11 11 11
13 13 13 13 13 12 13 12 12 13 13 13 13 12 13 13 12 12 11 12 12 12
14 14 14 14 13 13 13 14 14 14 14 13 13 13 13 13 13 13 13 12 12 11
14 15 15 15 15 15 15 15 15 15 15 15 15 14 13 13 13 14 13 13 13 12
15 14 14 15 15 15 15 15 15 15 15 15 14 13 14 14 15 15 15 14 14 13
14 14 15 15 15 15 15 16 16 16 15 15 14 11 11 11 14 14 15 15 15 14
14 14 15 15 15 16 16 16 16 16 15 15 15 11 11 10 13 14 15 14 14 14
15 15 15 16 16 16 16 16 16 16 15 15 14 11 11 10 13 14 14 14 14 14
15 16 16 16 17 16 16 16 16 15 15 16 15 11 10 11 14 13 14 13 13 12
15 16 16 17 17 16 16 16 16 16 16 14 15 11 10 10 13 14 14 13 12 10
16 16 16 17 17 17 17 17 17 16 16 15 14 14 10 9 11 12 11 12 12 11

GFSNIL_con_lsi_114.txt.gz
Lid_Strength_Index
10 10 9 9 8 8 9 9 8 8 8 8 8 7 7 7 8 8 8 8 8 7
11 12 12 12 11 11 10 11 10 10 10 10 10 10 9 10 9 9 9 9 9 9
13 13 13 13 13 13 13 13 13 13 12 12 12 12 12 12 12 12 12 10 10 11
14 14 14 14 14 14 13 13 13 13 13 13 13 13 13 13 12 12 12 11 11 10
15 15 15 15 15 15 16 15 15 15 15 15 15 15 14 14 14 14 14 14 13 13
15 15 15 15 15 15 15 15 15 15 15 15 14 15 14 14 14 15 15 15 15 14
15 15 15 15 15 15 15 15 15 15 15 15 15 15 14 14 14 15 14 14 14 14
14 14 15 15 15 15 15 16 16 15 15 15 14 13 13 13 14 14 15 14 14 14
14 14 15 16 16 16 16 16 16 16 16 16 14 12 11 12 14 14 15 15 14 14
14 15 16 16 16 16 17 17 16 16 16 16 16 11 11 11 14 14 15 14 14 13
15 16 16 16 17 17 17 17 17 17 16 16 15 12 11 11 15 14 14 13 13 14
15 16 17 17 17 17 17 17 18 17 17 17 16 12 11 11 14 13 13 12 12 11
16 17 17 17 17 17 17 17 17 17 17 15 17 13 11 11 13 13 13 12 11 9
16 17 17 18 18 18 18 18 18 17 18 17 16 15 11 10 12 12 12 12 11 11

GFSNIL_con_lsi_117.txt.gz
Lid_Strength_Index
11 11 11 11 11 10 10 10 10 10 9 9 9 9 8 8 8 7 8 9 9 9
14 14 14 13 13 13 12 11 12 12 13 13 12 11 12 12 13 12 12 11 11 11
15 15 15 15 15 15 15 14 14 14 14 13 13 13 13 13 13 13 13 12 12 11
15 15 16 16 15 15 15 15 15 15 15 15 15 15 15 15 14 15 15 14 14 13
15 16 16 15 15 15 15 15 15 15 15 15 15 15 15 15 14 15 15 15 14 14
15 15 15 15 15 15 16 16 16 15 16 15 15 15 15 15 15 14 15 15 15 15
15 15 15 15 16 16 16 16 16 16 16 15 15 15 15 14 14 15 14 14 15 15
14 14 15 15 16 16 16 16 16 16 16 16 15 14 14 14 15 15 15 15 15 14
14 15 15 16 16 16 17 17 17 17 17 17 15 13 12 12 15 15 15 16 15 14
15 15 16 16 17 17 18 18 17 17 17 17 17 13 12 12 15 15 16 15 14 14
15 16 16 17 17 18 18 18 18 17 17 17 17 13 12 11 15 15 15 14 14 14
15 16 17 17 18 18 19 19 18 17 18 19 18 14 12 12 15 14 14 13 12 11
16 17 17 18 19 18 19 17 16 16 18 17 18 14 12 12 14 14 13 12 11 9
17 17 18 19 19 19 19 18 19 18 18 19 18 16 12 11 13 13 12 12 11 11